Regional Weather Roundup
Issued by NWS

Home | Current Version | Previous Version | Graphics & Text | Print | Product List | Glossary On
Versions: 1 2 3 4 5 6 7 8 9 10 11 12 13 14 15 16 17 18 19 20 21 22 23 24 25 26 27 28 29 30 31 32 33 34 35 36 37 38 39 40 41 42 43 44 45 46 47 48 49 50
000
ASUS45 KCYS 292310
RWRWY

WYOMING REGIONAL WEATHER ROUNDUP
NATIONAL WEATHER SERVICE CHEYENNE WY
500 PM MDT MON JUN 29 2015

NOTE:  "FAIR" INDICATES FEW OR NO CLOUDS BELOW 12,000 FEET
WITH NO SIGNIFICANT WEATHER AND/OR OBSTRUCTIONS TO VISIBILITY.

WYZ001-300000-
YELLOWSTONE NATIONAL PARK

CITY           SKY/WX    TMP DP  RH WIND       PRES   REMARKS
LK YELLOWSTONE   N/A     77  41  27 CALM      30.37F
W YELLOWSTONE  NOT AVBL

$$
WYZ002>013-054>058-071-098>099-300000-
NORTHERN WYOMING

CITY           SKY/WX    TMP DP  RH WIND       PRES   REMARKS
JACKSON        FAIR      86  46  25 SW5       30.22F
CODY           FAIR      93  43  17 S8        30.12F
GREYBULL       FAIR      98  32  10 VRB5      30.02F HX  92
WORLAND        FAIR      96  33  11 VRB3      30.06F HX  91
SHERIDAN       FAIR      92  49  22 W5        30.08F
BUFFALO        FAIR      87  48  25 NW10      30.18F
GILLETTE       FAIR      90  54  29 VRB6      30.12F
HULETT         FAIR      88  48  25 CALM      30.12F
NEWCASTLE      FAIR      88  41  19 MISG      30.12S

$$
WYZ014>020-022>026-101>103-300000-
CENTRAL WYOMING

CITY           SKY/WX    TMP DP  RH WIND       PRES   REMARKS
BIG PINEY      FAIR      80  53  39 W12       30.31F
PINEDALE       FAIR      86  34  15 N6        30.30F
DUBOIS         FAIR      84  41  21 E16G24    30.30F
LANDER         FAIR      91  46  21 SE5       30.17F
RIVERTON       FAIR      90  37  15 SE5       30.18F
CASPER         FAIR      91  37  15 E7        30.19F
DOUGLAS        FAIR      90  44  20 N12       30.17F

$$
WYZ021-027>030-104>119-300000-
SOUTHERN WYOMING

CITY           SKY/WX    TMP DP  RH WIND       PRES   REMARKS
EVANSTON       FAIR      88  37  16 VRB5      30.29F
KEMMERER       FAIR     N/A N/A N/A SW6       30.32F
FORT BRIDGER   PTCLDY    91  36  14 SE9       30.32F
ROCK SPRINGS   FAIR      87  39  18 SE8       30.27F
DIXON          FAIR      90  33  13 N7G21     30.27F
RAWLINS        FAIR      87  33  14 NE16      30.30F
SARATOGA       FAIR      84  39  20 N5        30.32F
LARAMIE        FAIR      81  44  27 NE10G16   30.34F
CHEYENNE       FAIR      82  44  26 N12G17    30.26F
TORRINGTON     FAIR      87  51  28 E8        30.09F
PINE BLUFFS    FAIR      88  45  22 N12       30.19F

$$



USA.gov is the U.S. government's official web portal to all federal, state and local government web resources and services.